Theta_e
336 334 333 332 331 330 329 329 327 325 323 323 322 322 321 320 319 320 319 318 317 316 315 313 313 313 313 313 313 312 311 312 312 312 313 313 312 312 311 311 311 310
335 333 332 331 330 329 328 328 327 325 323 322 322 321 321 320 319 319 318 317 316 315 314 313 312 312 312 312 312 311 311 311 311 311 312 312 311 311 310 310 310 309
334 331 331 330 329 328 327 326 325 323 323 321 320 319 319 319 318 318 317 316 315 315 314 312 312 312 312 311 311 311 311 311 311 311 311 311 311 310 310 309 309 309
332 331 330 329 328 327 326 326 324 322 321 319 318 318 318 317 317 317 316 315 314 314 312 312 312 312 311 311 311 311 311 311 311 310 311 311 310 310 309 309 309 308
332 331 330 328 327 326 326 326 324 321 319 317 317 317 317 317 316 316 315 314 314 313 312 312 312 311 311 311 311 311 311 310 310 310 310 310 309 309 309 309 309 308
331 330 329 327 326 326 326 325 322 319 317 316 316 317 317 316 316 315 315 314 313 312 311 311 311 311 311 310 310 310 310 310 310 309 309 309 308 307 307 308 308 308
330 329 328 327 326 326 325 322 320 318 317 316 317 317 317 316 316 315 314 314 313 311 310 310 310 310 310 310 310 310 309 309 309 308 308 308 307 307 307 306 306 306
330 329 328 326 325 325 323 320 318 318 317 318 318 317 317 316 315 315 314 313 312 310 310 310 310 310 310 310 310 309 309 308 308 308 308 308 307 307 306 306 306 306
329 328 327 325 325 324 322 318 318 318 318 318 317 316 316 315 315 314 313 313 311 310 310 309 310 310 310 310 309 309 308 308 307 307 307 307 307 306 306 306 306 306
328 327 325 324 324 323 320 318 318 319 318 318 316 316 316 315 314 314 313 312 310 309 309 309 309 309 309 308 308 308 308 307 307 307 307 307 306 306 306 306 306 306
327 326 324 324 323 321 319 319 319 319 319 317 316 315 315 315 314 313 313 311 310 309 309 309 309 308 308 308 308 307 307 307 307 307 307 307 306 306 306 305 305 305
326 324 323 323 322 319 319 319 319 319 319 318 316 315 315 314 314 313 312 310 309 309 309 308 308 307 307 307 307 307 307 307 307 307 306 306 306 305 305 305 305 305
326 324 323 322 321 319 318 319 319 319 318 317 316 315 315 314 313 313 311 309 308 309 308 308 308 307 307 307 307 307 307 307 306 306 305 305 305 305 305 305 304 303
326 325 323 321 320 319 319 318 318 318 318 317 316 315 314 313 312 312 310 309 308 308 308 308 308 307 307 307 307 307 307 307 306 306 305 305 305 305 305 304 303 302
326 324 323 321 320 319 319 318 317 318 317 317 316 315 314 313 312 310 309 308 308 308 308 308 308 307 307 307 307 307 306 306 306 305 305 304 304 304 303 302 301 300
325 324 322 321 320 319 318 317 317 317 317 317 315 314 313 313 311 310 309 308 308 308 308 308 307 307 306 305 306 306 306 305 305 305 304 304 304 303 302 300 299 296
325 323 321 320 319 318 317 316 316 317 317 316 315 314 313 312 311 309 308 308 308 308 308 308 307 306 305 304 304 305 305 305 305 305 305 304 304 303 302 300 299 298
323 321 320 319 317 317 316 316 316 317 317 316 315 314 313 312 311 309 308 308 309 308 308 308 307 305 303 304 304 304 305 306 306 305 305 304 304 303 303 302 301 301
320 319 319 317 316 316 316 316 316 317 317 316 315 313 313 312 310 309 308 308 308 308 308 308 305 303 303 303 303 304 305 306 305 305 305 305 304 303 302 302 301 301
319 318 317 316 316 315 315 316 317 318 317 316 314 313 312 312 310 309 308 309 309 308 309 307 304 302 302 302 303 303 304 305 305 305 305 304 304 304 303 302 302 301
319 317 316 315 315 315 315 316 317 318 317 316 314 313 312 311 310 309 308 308 308 308 308 305 302 300 300 301 301 302 303 305 305 305 304 304 303 303 303 303 303 302
318 317 316 315 315 315 316 317 318 317 316 315 313 312 312 311 310 309 308 308 308 307 307 303 299 298 298 298 299 301 302 304 304 303 303 303 303 302 302 302 302 302
318 317 316 316 316 316 316 318 318 317 316 315 313 312 311 311 310 309 308 308 307 307 306 301 298 297 297 296 298 301 302 303 303 303 303 303 302 302 302 302 302 302
318 317 316 316 316 316 317 318 318 317 316 314 313 311 311 311 309 308 307 307 307 307 305 301 297 297 297 296 297 299 302 303 303 302 302 302 302 302 302 301 300 301
317 316 316 317 316 317 318 318 317 316 315 313 312 311 311 310 308 308 307 308 308 307 305 301 298 297 297 296 296 298 301 303 302 302 302 302 301 302 302 300 296 297
316 316 317 316 316 317 319 317 316 315 314 313 312 311 310 309 308 308 307 307 307 305 303 301 298 297 297 296 296 299 302 302 302 303 302 301 301 301 301 301 297 295
Wind_Speed
18 17 14 12 15 17 17 17 19 19 18 17 15 14 13 12 12 11 10 10 10 10 9 10 11 12 12 13 14 15 14 14 13 13 13 14 14 14 14 14 13 12
16 15 15 16 18 18 17 20 21 19 18 16 17 17 14 13 13 12 11 11 11 10 10 11 11 12 12 13 14 15 15 14 14 13 14 14 14 14 14 13 13 12
15 15 17 18 19 17 18 21 21 20 19 18 18 18 16 14 14 12 12 12 11 10 10 11 12 12 13 14 15 15 14 14 13 13 13 13 13 13 13 12 12 11
17 17 18 17 17 20 23 23 21 20 19 19 19 18 16 15 14 13 12 12 11 11 11 12 12 13 14 14 14 14 14 13 13 12 12 13 12 12 12 11 11 11
17 19 18 17 18 24 27 24 22 20 19 20 20 18 16 16 15 14 13 12 11 11 12 12 13 14 14 14 14 14 14 13 12 12 12 12 11 11 11 10 10 11
18 20 18 17 22 27 27 24 22 20 20 21 20 18 17 16 15 14 13 12 12 12 12 13 13 14 14 14 14 13 13 12 12 12 12 12 11 11 10 10 10 11
19 21 19 18 25 29 27 25 23 20 20 20 19 17 16 16 14 14 13 12 12 12 13 13 14 14 14 14 14 13 13 13 12 12 12 11 11 11 10 10 11 12
21 22 20 20 26 29 26 26 24 21 20 18 17 17 16 15 15 14 13 13 13 13 13 14 14 14 14 13 14 14 13 13 12 12 12 11 11 10 10 10 11 11
21 22 22 22 28 30 27 25 23 20 19 17 18 18 16 15 15 14 14 13 13 14 14 15 15 14 14 14 14 14 13 13 13 12 12 11 11 11 11 11 10 10
21 22 23 25 29 30 27 24 21 19 17 17 18 18 17 16 15 14 14 13 14 14 15 15 15 15 15 15 14 14 14 14 13 12 12 11 11 11 11 10 9 9
22 23 25 28 30 29 26 23 19 18 17 17 18 18 17 16 15 15 14 13 14 15 15 15 15 15 15 15 15 14 14 14 13 12 12 11 11 11 11 10 9 8
23 24 28 30 30 29 26 21 18 17 17 17 18 18 18 17 15 14 14 14 15 15 16 16 16 16 15 15 15 15 14 13 13 13 12 12 12 11 11 9 8 8
25 27 30 31 29 27 25 20 18 17 17 17 18 18 18 17 16 15 14 14 15 16 16 16 16 16 15 15 15 15 14 14 13 13 13 12 12 11 10 9 8 7
25 27 29 30 28 25 22 20 18 17 16 17 18 17 17 17 16 15 15 15 16 16 16 16 16 15 15 15 15 14 14 14 13 13 13 12 12 11 10 9 8 7
25 25 26 29 26 21 20 20 18 17 17 17 18 17 17 16 16 16 15 16 17 17 16 16 15 15 15 15 15 15 15 14 13 13 13 13 13 11 10 9 8 8
25 24 25 27 24 20 21 22 19 17 17 17 17 17 17 16 16 16 16 17 18 17 17 16 14 15 16 16 15 15 14 13 13 13 12 12 12 11 10 10 9 10
25 24 26 26 22 21 24 24 20 17 17 17 16 17 17 17 16 16 17 17 18 17 17 15 13 16 19 19 17 16 14 13 13 12 11 12 11 11 10 10 9 9
25 26 27 25 22 24 26 23 19 17 16 16 16 17 17 17 17 17 17 17 17 18 17 14 14 20 22 20 19 18 15 13 12 12 11 11 10 10 10 9 9 8
28 30 28 23 23 26 25 21 18 17 17 16 17 17 17 17 17 17 17 18 18 18 16 14 17 23 24 22 21 20 17 13 11 11 11 11 10 10 9 9 9 8
27 29 26 23 24 27 25 21 18 17 17 17 18 17 16 17 17 17 18 18 18 18 16 15 20 26 26 24 22 20 16 12 10 11 10 10 10 9 8 8 8 7
25 25 24 25 26 26 24 20 18 18 18 18 19 18 17 17 17 17 18 17 18 18 15 16 22 26 25 24 23 20 14 10 9 11 10 10 9 8 7 7 7 6
25 25 24 25 25 23 21 20 19 18 18 19 19 18 17 16 16 17 17 17 18 17 16 18 24 25 24 24 23 19 14 9 9 10 9 9 9 8 7 7 6 6
27 29 26 24 23 22 21 21 20 19 19 19 19 18 17 17 17 17 17 18 18 17 17 22 26 25 24 25 24 20 14 9 8 9 9 9 9 8 8 7 6 7
25 28 27 24 22 21 21 20 20 20 19 19 19 18 17 17 16 17 17 18 18 17 18 24 28 26 25 26 27 23 17 11 9 9 9 9 9 8 7 6 8 10
22 24 26 26 23 22 22 20 20 20 19 18 19 18 17 16 16 17 17 17 17 16 19 25 28 27 25 26 27 24 20 14 10 9 10 10 9 9 8 6 9 12
20 21 24 25 23 22 21 19 20 20 19 19 18 17 16 16 15 16 16 16 15 16 18 22 26 28 25 25 25 23 20 14 9 8 11 11 10 10 9 8 9 10
Wind_Direction
169 173 173 168 164 164 163 161 159 159 155 150 142 134 137 144 147 151 147 134 126 122 117 113 112 111 109 106 105 103 101 99 96 93 91 88 84 81 79 76 75 75
171 170 165 164 166 166 163 164 165 160 151 147 144 139 141 148 152 152 142 132 128 124 119 117 116 115 113 111 108 106 104 102 99 97 93 90 87 83 80 78 76 75
169 166 166 165 163 160 159 163 164 160 152 149 148 144 144 150 154 148 138 134 131 126 123 121 120 118 116 114 111 108 107 105 103 101 96 92 89 86 83 80 77 76
167 164 165 162 159 160 163 165 165 160 154 152 151 146 145 151 152 144 138 136 132 127 126 124 123 121 118 116 114 111 109 108 106 104 100 94 91 89 87 85 83 79
167 165 163 160 159 162 166 167 163 158 157 155 151 147 148 151 148 144 142 139 134 131 129 127 125 123 121 119 116 114 113 111 110 108 104 98 95 93 90 88 88 83
164 166 164 159 161 166 167 164 159 157 158 156 151 149 149 149 149 149 147 143 138 136 134 132 130 126 125 123 119 118 117 116 114 111 107 103 100 97 94 93 89 84
162 164 162 159 165 169 166 159 156 155 154 152 151 150 149 150 153 152 149 145 140 140 138 135 133 130 128 126 123 121 119 118 117 114 110 108 107 103 99 95 89 85
163 161 159 160 168 170 164 157 156 154 151 150 148 148 149 153 155 151 148 145 142 142 142 139 136 134 132 130 127 124 122 120 119 117 115 112 111 108 101 95 91 88
161 160 158 160 167 169 164 159 157 154 151 150 148 148 152 154 153 151 149 147 145 146 145 142 139 137 135 133 130 127 125 123 122 120 119 117 115 111 104 98 93 90
159 158 156 159 166 168 164 159 155 153 153 152 151 151 153 154 153 152 151 148 148 148 146 145 142 140 138 135 133 131 128 127 127 124 122 121 118 112 105 101 98 94
157 155 157 162 167 167 162 157 153 153 155 156 155 152 152 153 153 152 152 151 151 150 148 147 145 143 140 138 135 134 132 131 131 128 126 122 117 111 107 103 99 95
154 155 161 165 168 166 160 155 152 154 157 158 155 152 152 153 154 154 154 154 153 152 150 148 147 145 143 140 139 137 136 134 132 131 127 123 117 111 108 105 101 98
154 157 163 167 168 165 159 153 152 155 159 158 153 152 153 154 155 156 155 155 154 152 151 149 147 147 145 144 143 141 139 137 134 133 128 124 119 113 110 107 103 99
156 160 166 169 166 161 158 154 153 157 158 155 152 153 156 157 156 156 155 155 155 153 152 151 149 149 148 148 147 144 142 139 137 135 130 125 120 116 114 111 105 98
155 159 167 169 163 157 155 155 155 157 156 153 153 156 158 158 157 156 155 155 156 154 153 152 151 152 154 153 150 146 144 142 139 136 132 127 124 121 120 116 110 108
155 157 162 164 161 156 156 155 155 157 155 154 156 158 159 158 157 158 157 156 157 155 153 153 153 157 160 157 152 148 145 142 140 137 134 131 130 129 126 123 121 120
158 159 159 160 159 159 160 159 156 156 155 156 158 159 159 159 159 159 159 159 158 156 155 153 156 163 162 156 152 149 146 143 141 140 139 137 136 137 137 135 136 134
160 159 158 158 160 162 162 160 157 157 159 162 164 162 159 160 161 160 160 161 160 158 157 155 161 168 164 157 154 150 144 143 145 144 144 144 144 147 148 146 147 146
159 159 158 157 160 162 160 158 159 164 168 171 171 166 162 163 163 161 162 163 161 161 159 156 165 170 166 160 156 150 144 143 148 150 148 149 151 153 154 155 153 149
156 158 158 157 160 162 161 160 165 171 174 175 175 172 167 166 164 162 163 164 164 164 159 156 167 172 169 163 156 150 146 143 147 153 149 146 152 155 157 161 159 155
155 155 156 159 162 163 163 165 171 175 176 175 177 177 172 168 165 164 165 165 166 165 156 156 169 173 171 165 156 151 149 139 140 150 146 144 153 155 158 163 159 154
158 157 155 158 162 163 166 172 177 178 178 177 178 179 174 168 166 167 167 166 167 165 157 158 168 172 170 165 159 153 147 135 139 149 147 150 156 155 159 162 157 156
161 164 161 159 163 167 171 178 182 181 180 180 179 179 175 169 168 169 168 169 169 165 159 162 168 172 170 166 161 154 144 136 152 160 157 160 161 161 165 167 172 174
165 167 164 162 166 171 176 183 185 182 181 182 182 181 175 169 169 168 168 171 170 164 164 168 172 174 173 169 166 161 151 149 169 173 167 168 167 168 175 182 191 183
167 167 166 167 170 176 182 184 183 182 181 182 183 180 174 171 171 168 167 169 166 165 173 177 176 177 177 174 170 164 154 155 175 181 174 173 175 178 181 186 194 190
166 167 168 170 174 181 184 182 180 181 181 181 182 179 171 167 166 162 160 161 160 165 174 180 181 181 181 178 172 163 158 164 185 191 180 178 183 187 187 181 182 192